PAF135 RPVI-RPLB

Flight info

Callsign PAF135
Flight time N/A
Altitude 30000
Route BEDER W3 LUBAN B591 SUMIX SUMIX1
Aircraft B764/H-SDE3FGHIM3RWXY/LB1

Departure

Time N/A
Airport Iloilo International Airport (RPVI)

Arrival

Time 2026-05-06 06:57
Airport Subic Bay International Airport / Naval Air Station Cubi Point (RPLB)
Time Latitude Longitude Altitude Speed Heading
2026-05-06 06:20 11.34775 122.00809 23401 ft 461 kts 317°
2026-05-06 06:20 11.37160 121.98548 23943 ft 465 kts 317°
2026-05-06 06:20 11.39540 121.96291 24496 ft 467 kts 317°
2026-05-06 06:21 11.41935 121.94020 25014 ft 470 kts 317°
2026-05-06 06:21 11.44337 121.91741 25509 ft 473 kts 317°
2026-05-06 06:21 11.46755 121.89448 25993 ft 475 kts 317°
2026-05-06 06:21 11.49171 121.87154 26426 ft 478 kts 317°
2026-05-06 06:22 11.51587 121.84862 26847 ft 480 kts 317°
2026-05-06 06:22 11.54063 121.82512 27281 ft 482 kts 317°
2026-05-06 06:22 11.56489 121.80209 27682 ft 484 kts 317°
2026-05-06 06:22 11.58952 121.77870 28044 ft 486 kts 317°
2026-05-06 06:23 11.61381 121.75562 28546 ft 485 kts 316°
2026-05-06 06:23 11.63809 121.73256 29078 ft 482 kts 316°
2026-05-06 06:23 11.66239 121.70946 29525 ft 482 kts 316°
2026-05-06 06:23 11.68706 121.68600 29841 ft 480 kts 316°
2026-05-06 06:24 11.73583 121.63959 29839 ft 479 kts 316°
2026-05-06 06:24 11.78492 121.59287 29838 ft 481 kts 316°
2026-05-06 06:25 11.83364 121.54647 29837 ft 479 kts 316°
2026-05-06 06:26 11.90690 121.47667 29837 ft 481 kts 316°
2026-05-06 06:26 11.95573 121.43012 29835 ft 481 kts 316°
2026-05-06 06:27 12.00444 121.38364 29836 ft 481 kts 316°
2026-05-06 06:27 12.05345 121.33688 29842 ft 482 kts 316°
2026-05-06 06:28 12.10271 121.28982 29849 ft 482 kts 316°
2026-05-06 06:28 12.15167 121.24305 29857 ft 481 kts 316°
2026-05-06 06:29 12.20058 121.19629 29865 ft 480 kts 316°
2026-05-06 06:29 12.24940 121.14959 29866 ft 480 kts 316°
2026-05-06 06:30 12.29811 121.10298 29871 ft 482 kts 316°
2026-05-06 06:30 12.34737 121.05602 29867 ft 483 kts 318°
2026-05-06 06:31 12.40292 121.01730 29871 ft 483 kts 328°
2026-05-06 06:31 12.46012 120.98139 29862 ft 482 kts 328°
2026-05-06 06:32 12.51736 120.94563 29867 ft 482 kts 328°
2026-05-06 06:32 12.57495 120.90969 29874 ft 482 kts 328°
2026-05-06 06:33 12.63220 120.87399 29881 ft 480 kts 328°
2026-05-06 06:33 12.68929 120.83836 29885 ft 481 kts 328°
2026-05-06 06:34 12.74663 120.80257 29875 ft 483 kts 328°
2026-05-06 06:34 12.80410 120.76668 29864 ft 483 kts 328°
2026-05-06 06:35 12.86124 120.73096 29866 ft 482 kts 328°
2026-05-06 06:35 12.91881 120.69498 29868 ft 482 kts 328°
2026-05-06 06:36 12.97590 120.65926 29871 ft 482 kts 328°
2026-05-06 06:36 13.03329 120.62333 29870 ft 482 kts 328°
2026-05-06 06:37 13.09030 120.58763 29869 ft 481 kts 328°
2026-05-06 06:37 13.14773 120.55164 29868 ft 483 kts 328°
2026-05-06 06:38 13.20514 120.51563 29858 ft 482 kts 328°
2026-05-06 06:38 13.26220 120.47985 29848 ft 482 kts 328°
2026-05-06 06:39 13.31953 120.44386 29862 ft 480 kts 328°
2026-05-06 06:39 13.37656 120.40804 29870 ft 480 kts 328°
2026-05-06 06:40 13.43377 120.37209 29867 ft 481 kts 328°
2026-05-06 06:40 13.49073 120.33630 29868 ft 481 kts 328°
2026-05-06 06:40 13.51948 120.31821 29414 ft 488 kts 328°
2026-05-06 06:41 13.54832 120.30006 28647 ft 490 kts 328°
2026-05-06 06:41 13.57736 120.28179 27907 ft 488 kts 328°
2026-05-06 06:41 13.60602 120.26375 27569 ft 476 kts 328°
2026-05-06 06:41 13.63379 120.24625 27437 ft 462 kts 328°
2026-05-06 06:42 13.66116 120.22900 26814 ft 459 kts 328°
2026-05-06 06:42 13.68802 120.21207 25855 ft 452 kts 328°
2026-05-06 06:42 13.71440 120.19544 24766 ft 448 kts 328°
2026-05-06 06:42 13.74071 120.17884 23782 ft 441 kts 329°
2026-05-06 06:43 13.76666 120.16248 22775 ft 435 kts 329°
2026-05-06 06:43 13.79191 120.14655 21844 ft 428 kts 329°
2026-05-06 06:43 13.81757 120.13129 21259 ft 428 kts 334°
2026-05-06 06:43 13.84534 120.12026 20554 ft 428 kts 345°
2026-05-06 06:44 13.87452 120.11441 19843 ft 428 kts 355°
2026-05-06 06:44 13.90424 120.11389 19134 ft 426 kts
2026-05-06 06:44 13.93326 120.11740 18392 ft 417 kts
2026-05-06 06:44 13.96157 120.12090 17697 ft 409 kts
2026-05-06 06:45 13.98990 120.12453 16965 ft 402 kts
2026-05-06 06:45 14.01731 120.12801 16269 ft 395 kts
2026-05-06 06:45 14.04428 120.13147 15584 ft 389 kts
2026-05-06 06:45 14.06914 120.13466 14927 ft 384 kts
2026-05-06 06:46 14.09660 120.13799 14211 ft 379 kts
2026-05-06 06:46 14.12230 120.13719 13535 ft 376 kts 355°
2026-05-06 06:46 14.14767 120.13507 12988 ft 371 kts 357°
2026-05-06 06:46 14.17309 120.13300 12404 ft 368 kts 356°
2026-05-06 06:47 14.19760 120.13100 11843 ft 364 kts 356°
2026-05-06 06:47 14.22281 120.12888 11263 ft 362 kts 356°
2026-05-06 06:47 14.24760 120.12680 10672 ft 359 kts 356°
2026-05-06 06:47 14.27258 120.12469 10073 ft 356 kts 356°
2026-05-06 06:48 14.29719 120.12260 9559 ft 351 kts 356°
2026-05-06 06:48 14.32129 120.12057 8688 ft 364 kts 356°
2026-05-06 06:48 14.34765 120.11831 7146 ft 385 kts 357°
2026-05-06 06:48 14.37360 120.11639 7131 ft 365 kts 358°
2026-05-06 06:49 14.39864 120.11410 6956 ft 351 kts 357°
2026-05-06 06:49 14.42267 120.11206 6772 ft 339 kts 357°
2026-05-06 06:49 14.44571 120.11002 6581 ft 328 kts 358°
2026-05-06 06:49 14.46775 120.10814 6398 ft 318 kts 358°
2026-05-06 06:50 14.48943 120.10627 6254 ft 309 kts 358°
2026-05-06 06:50 14.51046 120.10447 6080 ft 300 kts 358°
2026-05-06 06:50 14.53086 120.10273 5878 ft 281 kts 358°
2026-05-06 06:50 14.54935 120.10113 5892 ft 257 kts 358°
2026-05-06 06:51 14.56676 120.09965 5949 ft 239 kts 359°
2026-05-06 06:51 14.58310 120.09827 5911 ft 235 kts 359°
2026-05-06 06:51 14.59930 120.09690 5922 ft 231 kts 359°
2026-05-06 06:51 14.61528 120.09555 5924 ft 231 kts 359°
2026-05-06 06:52 14.63152 120.09358 5771 ft 244 kts 356°
2026-05-06 06:52 14.64873 120.09120 5303 ft 255 kts 355°
2026-05-06 06:52 14.66636 120.08878 4873 ft 261 kts 355°
2026-05-06 06:52 14.68420 120.08768 4693 ft 252 kts 12°
2026-05-06 06:53 14.69961 120.09429 4540 ft 238 kts 42°
2026-05-06 06:53 14.70991 120.10728 4384 ft 229 kts 58°
2026-05-06 06:53 14.71830 120.12108 4198 ft 224 kts 59°
2026-05-06 06:53 14.72613 120.13463 4104 ft 214 kts 60°
2026-05-06 06:54 14.73340 120.14780 3923 ft 208 kts 61°
2026-05-06 06:54 14.74024 120.16058 3730 ft 203 kts 62°
2026-05-06 06:54 14.74701 120.17349 3319 ft 202 kts 62°
2026-05-06 06:54 14.75347 120.18594 2988 ft 181 kts 62°
2026-05-06 06:55 14.75880 120.19633 2836 ft 156 kts 61°
2026-05-06 06:55 14.76405 120.20614 2273 ft 162 kts 60°
2026-05-06 06:55 14.76935 120.21648 1678 ft 167 kts 61°
2026-05-06 06:55 14.77476 120.22717 1056 ft 173 kts 60°
2026-05-06 06:56 14.78046 120.23806 577 ft 169 kts 62°
2026-05-06 06:56 14.78532 120.24886 298 ft 164 kts 66°
2026-05-06 06:56 14.78970 120.25958 114 ft 158 kts 68°
2026-05-06 06:56 14.79365 120.26944 71 ft 129 kts 68°
2026-05-06 06:57 14.79633 120.27605 71 ft 80 kts 68°
2026-05-06 06:57 14.79763 120.27925 71 ft 38 kts 68°
2026-05-06 06:57 14.79830 120.28087 71 ft 16 kts 67°
2026-05-06 06:57 14.79814 120.28167 71 ft 8 kts 144°
2026-05-06 06:58 14.79767 120.28194 71 ft 7 kts 142°
2026-05-06 06:58 14.79722 120.28243 71 ft 11 kts 143°
2026-05-06 06:58 14.79665 120.28272 71 ft 3 kts 153°
2026-05-06 06:58 14.79641 120.28284 71 ft 2 kts 164°
2026-05-06 06:59 14.79631 120.28286 71 ft 0 kts 170°